Location: Burbank
(38.7788°N, 114.0429°W)
Time: 01:44:01
(UTC+00:00)

Injun/Solrad 3 - All Passes

Search period start: 14 May 2026 00:00
Search period end: 24 May 2026 00:00
Orbit: 868 x 988 km, 66.8° (Epoch: 13 May)

Date Brightness Start Highest point End Pass type
(mag) Time Alt. Az. Time Alt. Az. Time Alt. Az.
14 May - 01:41:23 10° NW 01:43:13 11° NW 01:45:06 10° NNW daylight
14 May - 07:08:03 10° N 07:13:16 25° NE 07:18:29 10° ESE visible
14 May - 08:53:53 10° NW 09:00:15 63° WSW 09:06:34 10° SSE visible
14 May - 22:14:33 10° S 22:19:58 37° ESE 22:25:32 10° NE daylight
15 May - 00:00:54 10° WSW 00:06:24 36° NW 00:12:06 10° NNE daylight
15 May - 07:18:43 10° NNW 07:24:36 36° NE 07:30:27 10° ESE visible
15 May - 09:05:10 10° NW 09:11:08 41° WSW 09:17:04 10° S visible
15 May - 22:24:58 10° S 22:30:49 58° ESE 22:36:53 10° NE daylight
16 May - 00:12:47 10° WSW 00:17:43 25° NW 00:22:47 10° N daylight
16 May - 05:45:40 10° NNE 05:47:45 11° NE 05:49:49 10° NE visible
16 May - 07:29:31 10° NNW 07:35:48 52° ENE 07:42:04 10° SE visible
16 May - 09:16:43 10° NW 09:21:56 27° WSW 09:27:09 10° SSW visible
16 May - 20:54:14 10° ESE 20:56:18 12° E 20:58:22 10° E daylight
16 May - 22:35:45 10° SSW 22:41:46 89° ESE 22:48:01 10° NNE daylight
17 May - 00:25:06 10° W 00:29:08 18° NW 00:33:16 10° N daylight
17 May - 05:55:29 10° N 05:59:21 16° NE 06:03:12 10° ENE visible
17 May - 07:40:27 10° NNW 07:46:55 77° ENE 07:53:21 10° SSE visible
17 May - 09:28:47 10° WNW 09:32:40 17° WSW 09:36:32 10° SW visible
17 May - 21:02:45 10° SSE 21:06:57 20° ESE 21:11:14 10° ENE daylight
17 May - 22:46:53 10° SW 22:52:50 61° WNW 22:59:00 10° NNE daylight
18 May - 00:38:03 10° WNW 00:40:41 13° NW 00:43:21 10° NNW daylight
18 May - 06:05:52 10° N 06:10:49 23° NE 06:15:46 10° E visible
18 May - 07:51:30 10° NNW 07:57:56 72° WSW 08:04:19 10° SSE visible
18 May - 21:12:30 10° SSE 21:17:42 32° ESE 21:23:03 10° NE daylight
18 May - 22:58:19 10° WSW 23:03:59 41° NW 23:09:52 10° NNE daylight
19 May - 06:16:29 10° NNW 06:22:10 32° NE 06:27:51 10° ESE visible
19 May - 08:02:44 10° NW 08:08:52 47° WSW 08:14:57 10° S visible
19 May - 21:22:46 10° S 21:28:31 50° ESE 21:34:28 10° NE daylight
19 May - 23:10:05 10° WSW 23:15:15 28° NW 23:20:36 10° N daylight
20 May - 04:44:19 10° NNE 04:45:12 10° NNE 04:46:04 10° NE visible
20 May - 06:27:14 10° NNW 06:33:25 46° NE 06:39:34 10° SE visible
20 May - 08:14:10 10° NW 08:19:42 31° WSW 08:25:11 10° SSW visible
20 May - 21:33:27 10° SSW 21:39:26 78° ESE 21:45:40 10° NNE daylight
20 May - 23:22:15 10° W 23:26:39 20° NW 23:31:09 10° N daylight
21 May - 04:53:26 10° N 04:56:50 15° NE 05:00:14 10° ENE visible
21 May - 06:38:08 10° NNW 06:44:34 68° ENE 06:50:58 10° SE visible
21 May - 08:26:01 10° WNW 08:30:27 20° WSW 08:34:50 10° SSW visible
21 May - 20:01:00 10° SE 20:04:43 17° ESE 20:08:30 10° ENE daylight
21 May - 21:44:27 10° SW 21:50:27 70° WNW 21:56:42 10° NNE daylight
21 May - 23:34:57 10° WNW 23:38:09 14° NW 23:41:25 10° N daylight
22 May - 05:03:42 10° N 05:08:21 20° NE 05:12:59 10° E visible
22 May - 06:49:09 10° NNW 06:55:37 82° WSW 07:02:02 10° SSE visible
22 May - 08:38:59 10° W 08:41:06 12° W 08:43:13 10° WSW visible
22 May - 20:10:28 10° SSE 20:15:25 27° ESE 20:20:31 10° NE daylight
22 May - 21:55:47 10° SW 22:01:35 47° NW 22:07:36 10° NNE daylight
22 May - 23:49:18 10° NW 23:49:47 10° NNW 23:50:17 10° NNW daylight
23 May - 05:14:15 10° N 05:19:44 28° NE 05:25:12 10° ESE visible
23 May - 07:00:18 10° NW 07:06:34 55° WSW 07:12:47 10° S visible
23 May - 20:20:36 10° S 20:26:13 43° ESE 20:32:02 10° NE daylight
23 May - 22:07:27 10° WSW 22:12:49 32° NW 22:18:23 10° NNE daylight
